Location: Unspecified
(0.0000°N, 0.0000°E)
Time: 19:52:01
(UTC+00:00)

deb OV3-4 - Pass Details

Date: 14 April 2026
Orbit: 581 x 4210 km, 40.6° (Epoch: 13 May)

Event Time Altitude Azimuth Distance (km) Brightness Sun altitude
Rises 18:31:10 0° 321° (NW) 7,036 ? -7.6°
Reaches altitude 10° 18:36:57 10° 326° (NNW) 5,418 ? -9.0°
Maximum altitude 18:50:01 46° 35° (NE) 2,028 ? -12.3°
Enters shadow 18:55:30 18° 101° (E) 2,531 ? -13.6°
